Weather History for Pamplona, Spain

Change the Weather History Date:

Sunday, December 30, 2012

  Actual Average Record
Temperature  
Mean Temperature 38 °F -  
Max Temperature 46 °F 46 °F 51 °F (2006)
Min Temperature 30 °F 35 °F 28 °F (2013)
Degree Days  
Heating Degree Days 27    
Moisture  
Dew Point 36 °F    
Average Humidity 92    
Maximum Humidity 100    
Minimum Humidity 76    
Precipitation  
Precipitation 0.00 in - - ()
Sea Level Pressure  
Sea Level Pressure 30.43 in    
Wind  
Wind Speed 0 mph ()    
Max Wind Speed 2 mph    
Max Gust Speed -    
Visibility 4.5 miles    
Events Fog    
Averages and records for this station are not official NWS values.
T = Trace of Precipitation, MM = Missing Value Source: Averaged Metar Reports

Daily Weather History Graph

Daily Weather History Graph

Search for Another Location

Airport:

Trip Planner

Search our weather history database for the weather conditions in past years. The results will help you decide how hot, cold, wet, or windy it might be!

Date:

Astronomy

Dec. 30, 2012 Rise Set
Actual Time 8:37 AM CET 5:41 PM CET
Civil Twilight 8:04 AM CET 6:13 PM CET
Nautical Twilight 7:29 AM CET 6:49 PM CET
Astronomical Twilight 6:54 AM CET 7:23 PM CET
Moon 8:02 PM CET (12/30) 9:34 AM CET (12/30)
Length of Visible Light 10h 09m
Length of Day
9h 04m
Waning Gibbous, 96% of the Moon is Illuminated
Dec 30
Waning Gibbous
Jan 5
Last Quarter
Jan 11
New
Jan 19
First Quarter
Jan 27
Full

Hourly Weather History & Observations

Time (CET) Temp. Dew Point Humidity Pressure Visibility Wind Dir Wind Speed Gust Speed Precip Events Conditions
12:00 AM 37.4 °F 35.6 °F 93% 30.33 in - Calm Calm - N/A   Clear
5:30 AM 30.2 °F 30.2 °F 100% 30.39 in 4.3 mi NE 1.2 mph - N/A   Partly Cloudy
6:30 AM 30.2 °F 30.2 °F 100% 30.39 in 3.7 mi Calm Calm - N/A   Partly Cloudy
7:00 AM 32.0 °F 32.0 °F 100% 30.39 in 3.7 mi Variable 1.2 mph - N/A   Partly Cloudy
7:30 AM 32.0 °F 32.0 °F 100% 30.42 in 6.2 mi SE 2.3 mph - N/A   Partly Cloudy
8:00 AM 30.2 °F 30.2 °F 100% 30.42 in 3.7 mi Calm Calm - N/A   Partly Cloudy
8:30 AM 32.0 °F 32.0 °F 100% 30.42 in 5.0 mi Calm Calm - N/A Fog Scattered Clouds
8:41 AM 32.0 °F 32.0 °F 100% 30.42 in 1.6 mi Variable 1.2 mph - N/A   Scattered Clouds
8:50 AM 32.0 °F 32.0 °F 100% 30.42 in 0.6 mi Variable 1.2 mph - N/A Fog Light Freezing Fog
9:00 AM 32.0 °F 32.0 °F 100% 30.42 in 0.3 mi Variable 1.2 mph - N/A Fog Fog
9:30 AM 32.0 °F 32.0 °F 100% 30.45 in 1.2 mi Calm Calm - N/A Fog Partly Cloudy
9:41 AM 32.0 °F 32.0 °F 100% 30.45 in 0.3 mi Variable 1.2 mph - N/A Fog Patches of Fog
10:00 AM 33.8 °F 33.8 °F 100% 30.45 in 0.3 mi Calm Calm - N/A Fog Patches of Fog
10:13 AM 33.8 °F 33.8 °F 100% 30.45 in 0.1 mi Calm Calm - N/A Fog Fog
10:30 AM 33.8 °F 33.8 °F 100% 30.45 in 0.3 mi Calm Calm - N/A Fog Fog
11:00 AM 35.6 °F 35.6 °F 100% 30.48 in 3.7 mi Calm Calm - N/A Fog Partly Cloudy
11:30 AM 37.4 °F 37.4 °F 100% 30.48 in 5.6 mi Calm Calm - N/A Fog Fog
12:00 PM 39.2 °F 39.2 °F 100% 30.48 in 6.2 mi Calm Calm - N/A Fog Partly Cloudy
12:30 PM 41.0 °F 37.4 °F 87% 30.45 in 6.2 mi Variable 1.2 mph - N/A Fog Partly Cloudy
1:00 PM 42.8 °F 39.2 °F 87% 30.45 in 6.2 mi Calm Calm - N/A Fog Scattered Clouds
1:30 PM 44.6 °F 39.2 °F 81% 30.45 in 6.2 mi Calm Calm - N/A   Mostly Cloudy
2:00 PM 44.6 °F 39.2 °F 81% 30.45 in 6.2 mi Variable 1.2 mph - N/A   Mostly Cloudy
2:30 PM 44.6 °F 37.4 °F 76% 30.42 in 6.2 mi Calm Calm - N/A   Scattered Clouds
3:00 PM 46.4 °F 39.2 °F 76% 30.42 in 6.2 mi Calm Calm - N/A   Scattered Clouds
3:30 PM 46.4 °F 39.2 °F 76% 30.42 in 6.2 mi Calm Calm - N/A   Scattered Clouds
4:00 PM 46.4 °F 39.2 °F 76% 30.42 in 6.2 mi Calm Calm - N/A   Scattered Clouds
4:30 PM 44.6 °F 39.2 °F 81% 30.42 in 6.2 mi Variable 1.2 mph - N/A   Scattered Clouds
5:00 PM 44.6 °F 41.0 °F 87% 30.42 in 6.2 mi NNW 1.2 mph - N/A   Scattered Clouds
5:30 PM 44.6 °F 39.2 °F 81% 30.42 in 6.2 mi Calm Calm - N/A   Scattered Clouds
6:00 PM 44.6 °F 39.2 °F 81% 30.42 in 6.2 mi Calm Calm - N/A   Scattered Clouds
7:00 PM 42.8 °F 39.2 °F 87% 30.42 in 6.2 mi Calm Calm - N/A   Scattered Clouds
7:30 PM 42.8 °F 39.2 °F 87% 30.42 in 5.6 mi Calm Calm - N/A   Scattered Clouds
8:00 PM 41.0 °F 39.2 °F 93% 30.42 in 5.6 mi Calm Calm - N/A   Partly Cloudy
8:30 PM 39.2 °F 37.4 °F 93% 30.42 in 5.6 mi Calm Calm - N/A   Partly Cloudy
9:00 PM 41.0 °F 39.2 °F 93% 30.42 in 6.2 mi Calm Calm - N/A   Partly Cloudy
9:30 PM 37.4 °F 35.6 °F 93% 30.42 in - Calm Calm - N/A   Clear
10:00 PM 37.4 °F 35.6 °F 93% 30.42 in 4.3 mi Variable 1.2 mph - N/A   Unknown
10:30 PM 37.4 °F 35.6 °F 93% 30.42 in 5.6 mi Variable 2.3 mph - N/A   Partly Cloudy
11:00 PM 35.6 °F 33.8 °F 93% 30.42 in 4.3 mi South 2.3 mph - N/A   Partly Cloudy
11:30 PM 35.6 °F 33.8 °F 93% 30.42 in 5.0 mi South 1.2 mph - N/A   Partly Cloudy